Hourly Weather Allada

Today, 25 February, Thursday

Time Temperature Precipitation Wind Pressure Humidity
00:00 +28°C° 0 mm 2 mps 751 mmHg 81%
01:00 +28°C° 0 mm 2 mps 750 mmHg 82%
02:00 +28°C° 0 mm 2 mps 750 mmHg 83%
03:00 +28°C° 0 mm 2 mps 750 mmHg 84%
04:00 +27°C° 0 mm 1 mps 750 mmHg 85%
05:00 +27°C° 0 mm 1 mps 750 mmHg 86%
06:00 +27°C° 0 mm 1 mps 750 mmHg 90%
07:00 +29°C° 0 mm 2 mps 750 mmHg 80%
08:00 +31°C° 0 mm 2 mps 751 mmHg 70%
09:00 +34°C° 0 mm 3 mps 751 mmHg 59%
10:00 +36°C° 0 mm 2 mps 750 mmHg 50%
11:00 +38°C° 0 mm 2 mps 750 mmHg 42%
12:00 +40°C° 0 mm 1 mps 749 mmHg 33%
13:00 +39°C° 0 mm 2 mps 748 mmHg 37%
14:00 +38°C° 0 mm 3 mps 748 mmHg 41%
15:00 +37°C° 0 mm 4 mps 747 mmHg 45%
16:00 +35°C° 0 mm 4 mps 747 mmHg 51%
17:00 +34°C° 0 mm 4 mps 748 mmHg 58%
18:00 +33°C° 0 mm 5 mps 748 mmHg 64%
19:00 +32°C° 0 mm 4 mps 749 mmHg 67%
20:00 +32°C° 0 mm 4 mps 749 mmHg 69%
21:00 +30°C° 0 mm 4 mps 750 mmHg 71%
22:00 +30°C° 0 mm 4 mps 750 mmHg 72%
23:00 +30°C° 0 mm 5 mps 750 mmHg 73%

Tomorrow, 26 February, Friday

Time Temperature Precipitation Wind Pressure Humidity
00:00 +30°C° 0 mm 5 mps 750 mmHg 74%
01:00 +30°C° 0 mm 4 mps 750 mmHg 75%
02:00 +29°C° 0 mm 4 mps 750 mmHg 75%
03:00 +29°C° 0 mm 4 mps 749 mmHg 76%
04:00 +29°C° 0 mm 3 mps 749 mmHg 77%
05:00 +29°C° 0 mm 3 mps 750 mmHg 78%
06:00 +29°C° 0 mm 3 mps 750 mmHg 80%
07:00 +30°C° 0 mm 3 mps 750 mmHg 73%
08:00 +31°C° 0 mm 3 mps 751 mmHg 67%
09:00 +33°C° 0 mm 3 mps 751 mmHg 61%
10:00 +34°C° 0.7 mm 3 mps 751 mmHg 58%
11:00 +35°C° 0.7 mm 3 mps 750 mmHg 55%
12:00 +36°C° 0.7 mm 3 mps 750 mmHg 52%
13:00 +36°C° 0.3 mm 3 mps 749 mmHg 51%
14:00 +36°C° 0.3 mm 4 mps 749 mmHg 49%
15:00 +36°C° 0.3 mm 4 mps 748 mmHg 48%
16:00 +35°C° 0.1 mm 4 mps 748 mmHg 54%
17:00 +34°C° 0.1 mm 4 mps 748 mmHg 59%
18:00 +32°C° 0.1 mm 4 mps 748 mmHg 64%
19:00 +30°C° 0 mm 4 mps 749 mmHg 68%
20:00 +30°C° 0 mm 3 mps 749 mmHg 71%
21:00 +29°C° 0 mm 3 mps 750 mmHg 75%
22:00 +29°C° 0 mm 3 mps 749 mmHg 77%
23:00 +29°C° 0 mm 3 mps 749 mmHg 78%

Day after tomorrow, 27 February, Saturday

Time Temperature Precipitation Wind Pressure Humidity
00:00 +28°C° 0 mm 3 mps 749 mmHg 80%
01:00 +28°C° 0 mm 3 mps 749 mmHg 81%
02:00 +28°C° 0 mm 2 mps 749 mmHg 82%
03:00 +28°C° 0 mm 2 mps 748 mmHg 83%
04:00 +27°C° 0 mm 2 mps 749 mmHg 85%
05:00 +27°C° 0 mm 1 mps 749 mmHg 86%
06:00 +27°C° 0 mm 1 mps 749 mmHg 88%
07:00 +29°C° 0 mm 1 mps 750 mmHg 79%
08:00 +31°C° 0 mm 2 mps 751 mmHg 71%
09:00 +33°C° 0 mm 3 mps 751 mmHg 62%
10:00 +34°C° 0.3 mm 3 mps 751 mmHg 58%
11:00 +35°C° 0.3 mm 3 mps 750 mmHg 55%
12:00 +36°C° 0.3 mm 4 mps 749 mmHg 51%
13:00 +36°C° 1.2 mm 4 mps 749 mmHg 53%
14:00 +35°C° 1.2 mm 4 mps 748 mmHg 54%
15:00 +35°C° 1.2 mm 4 mps 748 mmHg 56%
16:00 +34°C° 0.3 mm 4 mps 748 mmHg 62%
17:00 +32°C° 0.3 mm 4 mps 748 mmHg 67%
18:00 +30°C° 0.3 mm 4 mps 748 mmHg 73%
19:00 +30°C° 0 mm 3 mps 749 mmHg 76%
20:00 +29°C° 0 mm 3 mps 749 mmHg 79%
21:00 +29°C° 0 mm 3 mps 750 mmHg 83%
22:00 +28°C° 0 mm 3 mps 749 mmHg 84%
23:00 +28°C° 0 mm 3 mps 749 mmHg 84%

28 February, Sunday

Time Temperature Precipitation Wind Pressure Humidity
00:00 +28°C° 0 mm 2 mps 749 mmHg 85%
01:00 +28°C° 0 mm 2 mps 749 mmHg 85%
02:00 +28°C° 0 mm 2 mps 748 mmHg 86%
03:00 +28°C° 0 mm 1 mps 748 mmHg 86%
04:00 +27°C° 0 mm 1 mps 748 mmHg 87%
05:00 +27°C° 0 mm 1 mps 748 mmHg 88%
06:00 +27°C° 0 mm 1 mps 748 mmHg 89%
07:00 +28°C° 0 mm 2 mps 749 mmHg 82%
08:00 +29°C° 0 mm 2 mps 749 mmHg 76%
09:00 +31°C° 0 mm 2 mps 750 mmHg 69%
10:00 +32°C° 0 mm 2 mps 750 mmHg 65%
11:00 +34°C° 0 mm 2 mps 749 mmHg 61%
12:00 +35°C° 0 mm 2 mps 749 mmHg 57%
13:00 +35°C° 0.2 mm 3 mps 748 mmHg 58%
14:00 +34°C° 0.2 mm 3 mps 748 mmHg 58%
15:00 +34°C° 0.2 mm 4 mps 747 mmHg 58%
16:00 +33°C° 0 mm 4 mps 747 mmHg 62%
17:00 +31°C° 0 mm 3 mps 748 mmHg 65%
18:00 +30°C° 0 mm 3 mps 748 mmHg 69%
19:00 +30°C° 0 mm 2 mps 748 mmHg 73%
20:00 +29°C° 0 mm 2 mps 749 mmHg 77%
21:00 +28°C° 0 mm 2 mps 750 mmHg 81%
22:00 +28°C° 0 mm 2 mps 750 mmHg 82%
23:00 +28°C° 0 mm 2 mps 750 mmHg 83%

1 March, Monday

Time Temperature Precipitation Wind Pressure Humidity
00:00 +28°C° 0 mm 2 mps 749 mmHg 84%
01:00 +28°C° 0 mm 2 mps 749 mmHg 85%
02:00 +28°C° 0 mm 2 mps 748 mmHg 85%
03:00 +27°C° 0 mm 2 mps 748 mmHg 86%
04:00 +27°C° 0 mm 2 mps 748 mmHg 87%
05:00 +27°C° 0 mm 2 mps 748 mmHg 88%
06:00 +27°C° 0 mm 1 mps 748 mmHg 90%
07:00 +28°C° 0 mm 2 mps 749 mmHg 83%
08:00 +30°C° 0 mm 2 mps 749 mmHg 75%
09:00 +31°C° 0 mm 3 mps 750 mmHg 68%
10:00 +33°C° 0 mm 3 mps 750 mmHg 66%
11:00 +32°C° 0 mm 2 mps 750 mmHg 63%
12:00 +34°C° 0 mm 2 mps 749 mmHg 61%
13:00 +34°C° 0.1 mm 3 mps 749 mmHg 59%
14:00 +35°C° 0.1 mm 3 mps 748 mmHg 58%
15:00 +35°C° 0.1 mm 3 mps 747 mmHg 56%
16:00 +34°C° 0.1 mm 3 mps 748 mmHg 60%
17:00 +31°C° 0.1 mm 3 mps 748 mmHg 65%
18:00 +30°C° 0.1 mm 3 mps 748 mmHg 69%
19:00 +30°C° 0 mm 3 mps 748 mmHg 73%
20:00 +29°C° 0 mm 3 mps 749 mmHg 76%
21:00 +29°C° 0 mm 3 mps 749 mmHg 80%
22:00 +28°C° 0 mm 3 mps 749 mmHg 81%
23:00 +28°C° 0 mm 3 mps 749 mmHg 83%

2 March, Tuesday

Time Temperature Precipitation Wind Pressure Humidity
00:00 +28°C° 0 mm 3 mps 749 mmHg 84%
01:00 +28°C° 0 mm 2 mps 749 mmHg 85%
02:00 +27°C° 0 mm 2 mps 748 mmHg 86%
03:00 +27°C° 0 mm 2 mps 748 mmHg 87%
04:00 +27°C° 0 mm 2 mps 748 mmHg 88%
05:00 +27°C° 0 mm 1 mps 748 mmHg 90%
06:00 +27°C° 0 mm 1 mps 748 mmHg 91%
07:00 +28°C° 0 mm 1 mps 749 mmHg 82%
08:00 +30°C° 0 mm 1 mps 750 mmHg 73%
09:00 +32°C° 0 mm 1 mps 751 mmHg 64%
10:00 +33°C° 0 mm 1 mps 750 mmHg 60%
11:00 +35°C° 0 mm 2 mps 750 mmHg 55%
12:00 +37°C° 0 mm 2 mps 750 mmHg 51%
13:00 +36°C° 0.1 mm 2 mps 749 mmHg 51%
14:00 +36°C° 0.1 mm 3 mps 748 mmHg 52%
15:00 +36°C° 0.1 mm 4 mps 748 mmHg 52%
16:00 +35°C° 0 mm 4 mps 748 mmHg 57%
17:00 +33°C° 0 mm 4 mps 748 mmHg 63%
18:00 +32°C° 0 mm 4 mps 748 mmHg 68%
19:00 +30°C° 0 mm 4 mps 748 mmHg 72%
20:00 +29°C° 0 mm 4 mps 749 mmHg 76%
21:00 +29°C° 0 mm 3 mps 749 mmHg 80%
22:00 +28°C° 0 mm 3 mps 749 mmHg 81%
23:00 +28°C° 0 mm 3 mps 749 mmHg 82%
Show more